Regional Weather Roundup
Issued by NWS Grand Forks, ND

Home | Current Version | Previous Version | Text Only | Print | Product List | Glossary Off
Versions: 1 2 3 4 5 6 7 8 9 10 11 12 13 14 15 16 17 18 19 20 21 22 23 24 25 26 27 28 29 30 31 32 33 34 35 36 37 38 39 40 41 42 43 44 45 46 47 48 49 50

000
ASUS43 KFGF 260731
RWRFGF
PRAIRIE TO PINES  WEATHER ROUNDUP
NATIONAL WEATHER SERVICE EASTERN NORTH DAKOTA/GRAND FORKS ND
200 AM CDT MON JUN 26 2017

 **SATELLITE DATA USED TO AUGMENT SKY COVER AT AUTOMATED STATIONS**
 *****  WEATHER ACROSS EASTERN NORTH DAKOTA  *****

CITY           SKY/WX    TMP DP  RH WIND       PRES   REMARKS
GRAND FORKS    FAIR      45  42  89 W7        30.20F
GRAND FRKS AFB FAIR      43  41  92 W6        30.21S
DEVILS LAKE    FAIR      42  40  92 NW3       30.25S
FARGO          FAIR      46  39  76 CALM      30.21R
WAHPETON ARPT  FAIR      43  37  81 NW6       30.21S
$$

 ***** WEATHER ACROSS CENTRAL AND WESTERN NORTH DAKOTA  *****

CITY           SKY/WX    TMP DP  RH WIND       PRES   REMARKS
BISMARCK       FAIR      47  43  86 E5        30.26S
MINOT          MOCLDY    50  42  74 S5        30.24S
JAMESTOWN      FAIR      45  42  89 CALM      30.23S
MINOT AFB      MOCLDY    46  41  83 CALM      30.23F
GARRISON         N/A     43  38  82 CALM      30.25S
WILLISTON      FAIR      51  43  74 CALM      30.24S
DICKINSON      FAIR      47  40  76 SE9       30.23S
HETTINGER      FAIR      46  38  73 CALM      30.25S
$$

 *****  OTHER AIRPORT OBSERVATIONS IN OUR AREA  *****

CITY           SKY/WX    TMP DP  RH WIND       PRES   REMARKS
WALHALLA       NOT AVBL
GRAFTON AIRPOR FAIR      50  45  81 W7        30.22S
VALLEY CITY AR FAIR      45  43  93 NW8       30.24F
CANDO          NOT AVBL
CAVALIER APRT  FAIR      48  43  81 W5        30.20S
GWINNER        CLOUDY    48  41  76 CALM      30.23S
SHEYENNE NWR     N/A     47  40  77 NW2       29.95S
ROLLA            N/A     41  41 100 W5        30.25S
 ***** THE ABOVE OBSERVATIONS ARE NON NWS ARE NOT QUALITY
       CONTROLLED AND MAY MIS-REPORT RAIN FOR SNOW...
$$

  *****  WEATHER ACROSS NORTHERN MINNESOTA  *****

CITY           SKY/WX    TMP DP  RH WIND       PRES   REMARKS
FLAG ISLAND    FAIR      52  46  82 NW13      30.13F
WARROAD        FAIR      45  41  87 W5        30.17S
ROSEAU         FAIR      48  45  87 W7        30.17S
HALLOCK        FAIR      45  43  93 W5        30.19S
THF RVR FALLS  FAIR      45  43  93 W5        30.20S
BAUDETTE       FAIR      46  44  93 W7        30.14F
WASKISH        FAIR      50  45  81 NW8       30.15F
CROOKSTON      FAIR      43  39  87 NW5       30.21S
STEPHEN NDAWN    N/A     45  43  93 W2          N/A
GREENBUSH NDAW   N/A     45  43  93 W5          N/A
$$
  *****  WEATHER ACROSS CENTRAL AND WEST MINNESOTA  *****

CITY           SKY/WX    TMP DP  RH WIND       PRES   REMARKS
FOSSTON        FAIR      41  39  93 CALM      30.19F
BEMIDJI        FAIR      40  39  95 W6        30.17S
PARK RAPIDS    FAIR      42  37  82 NW5       30.17S
ELBOW LAKE     FAIR      51  45  80 N5        30.20S
WADENA         FAIR      45  41  87 NW3       30.18S
DETROIT LAKES  FAIR      46  43  87 NW5       30.20S
MOORHEAD       FAIR      45  39  81 CALM      30.22R
FERGUS FALLS   FAIR      48  43  81 CALM      30.18S
MORRIS MN      FAIR      48  46  93 NW5       30.19S
STAPLES        FAIR      45  39  81 NW5       30.17S
$$
  *****  WEATHER ELSEWHERE ACROSS MINNESOTA  *****

CITY           SKY/WX    TMP DP  RH WIND       PRES   REMARKS
DULUTH         FAIR      42  42 100 NW6       30.10S
INTRNTL FALLS  FAIR      41  39  93 CALM      30.12S
ELY            MOCLDY    46  45  93 CALM      30.09F
CLOQUET        FAIR      43  39  87 W5        30.11F
WHEATON        FAIR      50  45  81 CALM      30.23S
BRAINERD       FAIR      49  43  80 NW8       30.16S
HIBBING        FAIR      38  38 100 CALM      30.12S
ALEXANDRIA     FAIR      49  44  83 CALM      30.19S
SAINT CLOUD    FAIR      48  43  82 NW6       30.16R
MINNEAPOLIS    FAIR      54  44  69 NW5       30.13F
$$

  *****  WEATHER ACROSS SOUTH DAKOTA  *****

CITY           SKY/WX    TMP DP  RH WIND       PRES   REMARKS
SIOUX FALLS    MOCLDY    55  53  93 S5        30.20F
BROOKINGS      FAIR      49  46  90 CALM      30.22S
WATERTOWN      FAIR      47  45  93 CALM      30.21S
HURON          FAIR      50  50 100 N3        30.22S
SISSETON         N/A     50  45  83 NW7       30.21R
ABERDEEN       FAIR      49  45  86 NW3       30.23S
MITCHELL       MOCLDY    57  51  80 E6        30.21F
PIERRE         FAIR      49  44  83 NE7       30.21S
MOBRIDGE       FAIR      53  44  71 E8        30.22R
RAPID CITY     FAIR      48  36  63 CALM      30.27S
$$

  *****  SOME WEATHER IN NEARBY STATES *****

CITY           SKY/WX    TMP DP  RH WIND       PRES   REMARKS
GLASGOW MT     FAIR      57  39  51 E12       30.18S
GREAT FALLS MT FAIR      65  37  35 SE10      30.12F
CHEYENNE WY    MOCLDY    55  52  89 SW14      30.35S
SCOTTSBLUFF NE FAIR      64  53  67 SW6       30.23F
OMAHA NE       FAIR      60  48  64 SE9       30.17F
DES MOINES IA  FAIR      56  51  84 CALM      30.18F
DAVENPORT IA   FAIR      52  47  83 W7        30.15S
CHICAGO IL     FAIR      57  49  74 CALM      30.09F
EAU CLAIRE WI  FAIR      48  46  93 W3        30.09S
LA CROSSE WI   FAIR      55  49  80 SE3       30.10S
$$

  *****  SOME NATIONAL WEATHER *****

CITY           SKY/WX    TMP DP  RH WIND       PRES   REMARKS
LA GUARDIA NY  FAIR      69  51  52 N6        29.98S
RALEIGH NC     FAIR      67  60  78 NE5       30.10S
ATLANTA GA     FAIR      65  62  90 NW9       30.13F
NEW ORLEANS LA MOCLDY    78  70  76 NE7       30.10F
OKLAHOMA CITY  MOCLDY    69  56  62 SE6       30.19F
ALBUQUERQUE NM FAIR      69  52  54 E8        30.29R
SALT LAKE CITY NOT AVBL
LOS ANGELES CA FAIR      67  60  78 S3        29.89S
BOISE ID       FAIR      75  46  35 SE9       29.96S
SEATTLE WA     MOCLDY    67  56  67 SW8       29.91R
$$

*** WEATHER ACROSS MANITOBA...SASKATCHEWAN AND ONTARIO ***
                ***ONTARIO***

CITY           SKY/WX    TMP DP  RH WIND       PRES   REMARKS
GERALDTON      MOCLDY    41  39  93 W3        30.00S
THUNDER BAY    LGT RAIN  50  48  93 W6        30.02F
SIOUX LOOKOUT  PTCLDY    43  43 100 NW3       30.06S
TORONTO        MOCLDY    57  52  82 W3        29.95F
BIG TROUT LK   MOCLDY    48  45  87 N6        29.97S
PICKLE LAKE    NOT AVBL
DRYDEN         PTCLDY    46  45  93 W7        30.08F
KENORA         CLOUDY    52  46  82 W7        30.12S
$$
                *** MANITOBA***

CITY           SKY/WX    TMP DP  RH WIND       PRES   REMARKS
BRANDON        CLEAR     41  37  87 NW6       30.23S
DAUPHIN        CLEAR     45  41  87 W8        30.20R
ISLAND LAKE    PTCLDY    50  50 100 CALM      30.06F
PILOT MOUND      N/A     43  41  93 W5          N/A
THE PAS        CLEAR     46  43  87 CALM      30.15S
THOMPSON       PTCLDY    45  41  87 W2        30.06F
WINNIPEG       CLEAR     45  43  93 W9        30.18S
LYNN LAKE      CLEAR     54  39  58 W8        30.07S
CHURCHILL      LGT RAIN  54  46  76 W5        29.91S
GILLAM         CLOUDY    50  43  76 SW5       30.01S
$$
                ***SASKATCHEWAN***

CITY           SKY/WX    TMP DP  RH WIND       PRES   REMARKS
ESTEVAN        CLEAR     45  41  87 E6        30.25S
KINDERSLEY     PTCLDY    54  41  62 SE15      30.15F
LLOYDMINSTER   CLEAR     57  43  58 SE14      30.12F
PRINCE ALBERT  CLEAR     46  41  81 W2        30.20F
REGINA         CLEAR     52  37  58 E5        30.25S
YORKTON        CLEAR     50  41  71 W8        30.23S
N. BATTLEFORD  CLEAR     50  43  76 SE12      30.19S
LA RONGE       PTCLDY    54  34  47 SW5       30.15S
SASKATOON      CLEAR     52  39  62 S10       30.21F
SWIFT CURRENT  CLEAR     46  41  81 SE10      30.20S
$$
NOTE: THESE ARE AUTOMATED STATIONS WITH LIMITED QUALITY CONTROL
      "FAIR" INDICATES FEW OR NO CLOUDS BELOW 12,000 FEET WITH NO
      SIGNIFICANT WEATHER AND/OR OBSTRUCTIONS TO VISIBILITY.
      SKY/WX - SKY CONDITION AND SIGNIFICANT WEATHER.
      TMP - AIR TEMPERATURE.    DP   - DEWPOINT TEMPERATURE.
      RH  - RELATIVE HUMIDITY.  PRES - PRESSURE.
      HX  - HEAT INDEX.         WCI  - WIND CHILL INDEX.
$



USA.gov is the U.S. government's official web portal to all federal, state and local government web resources and services.